Miscellaneous Local Product
Issued by NWS North Platte, NE

Home | Current Version | Previous Version | Text Only | Print | Product List | Glossary On
Versions: 1 2 3 4 5 6 7 8 9 10 11 12 13 14 15 16 17 18 19 20 21 22 23 24 25 26 27 28 29 30 31 32 33 34 35 36 37 38 39 40 41 42 43 44 45 46 47 48 49 50
601
AXUS43 KLBF 100010
MISLBF


WESTERN AND NORTH CENTRAL NEBRASKA HOURLY WEATHER ROUNDUP
NATIONAL WEATHER SERVICE NORTH PLATTE NE
600 PM CST FRI DEC 09 2016

NOTE: "FAIR" INDICATES FEW OR NO CLOUDS BELOW 12,000 FEET WITH NO
SIGNIFICANT WEATHER AND/OR OBSTRUCTIONS TO VISIBILITY.

NOTE: STATIONS NOT REPORTING VARIABLES SUCH AS SKY/WEATHER OR
PRESSURE ARE PROVIDED BY RAWS AND APRS NETWORKS AND ARE NOT UNDER
NATIONAL WEATHER SERVICE QUALITY CONTROL.

...OBSERVATIONS IN AND NEAR THE EASTERN PANHANDLE OF NEBRASKA...

CITY           SKY/WX    TMP DP  RH WIND       PRES   REMARKS
PINE RIDGE     CLOUDY     4   0  83 NE5       30.31F WCI  -5
CHADRON        CLOUDY     5  -1  76 NE7       30.31F WCI  -7
ALLIANCE       CLOUDY    10   2  69 N13       30.23R WCI  -5
SIDNEY         CLOUDY    18  10  71 E7        30.19R WCI   9
$$

...OBSERVATIONS IN NORTHERN NEBRASKA AND FAR SOUTHERN SOUTH DAKOTA...

CITY           SKY/WX    TMP DP  RH WIND       PRES   REMARKS
WINNER         LGT SNOW  10   5  80 NE7       30.45R WCI  -1
VALENTINE      CLOUDY     9   4  80 N14       30.38R WCI  -7
THEDFORD       CLOUDY    19   9  64 CALM      30.29R
AINSWORTH      CLEAR     11   8  88 NE9       30.35R WCI  -1
O`NEILL        FLURRIES  19  11  74 CALM      30.42R
BROKEN BOW     CLOUDY    20  12  71 SE5       30.32S WCI  13
VALENTINE NWR    N/A     17   5  60 E6          N/A  WCI   9
BUTTE            N/A     10   7  87 N10         N/A  WCI  -4
HALSEY           N/A     21   7  55 E5          N/A  WCI  15
CHAMBERS         N/A     19   6  58 E3          N/A
EWING            N/A     18  12  78 CALM        N/A
$$

...OBSERVATIONS IN SOUTHWEST NEBRASKA AND FAR NORTHEAST COLORADO...

CITY           SKY/WX    TMP DP  RH WIND       PRES   REMARKS
WRAY           MOCLDY    28  19  69 NE6       30.21  WCI  22
HOLYOKE        FAIR      25  18  74 NE7       30.21S WCI  17
IMPERIAL       CLOUDY    26  18  71 N6        30.24R WCI  19
OGALLALA       CLOUDY    18  12  76 NE5       30.25R WCI  11
NORTH PLATTE   CLOUDY    19  11  70 NE5       30.30R WCI  12
MCCOOK         CLEAR     21  13  71 E7        30.29R WCI  12
LEXINGTON      CLOUDY    22  13  68 SE6       30.33R WCI  15
STAPLETON        N/A     19  11  72 CALM        N/A
GOTHENBURG       N/A     20  11  66 CALM        N/A
CALLAWAY         N/A     14   9  79 E5          N/A  WCI   6
$$

...OBSERVATIONS IN CENTRAL LINCOLN COUNTY AREA...

CITY           SKY/WX    TMP DP  RH WIND       PRES   REMARKS
N.P. AIRPORT   CLOUDY    19  11  70 NE5       30.30R WCI  12
N.P. DOWNTOWN    N/A     24  15  68 CALM        N/A
N.P. SOUTHEAST   N/A     23  14  69 CALM        N/A
N.P. HILLCREST   N/A     23  15  70 E3          N/A
$$

...SOME OBSERVATIONS FROM AROUND THE REGION...

CITY           SKY/WX    TMP DP  RH WIND       PRES   REMARKS
LARAMIE        CLOUDY    34  22  61 SW15      30.09R WCI  24
CHEYENNE       CLOUDY    42  22  44 SW7       30.08S
DENVER         CLOUDY    30  23  75 E10       30.09R WCI  21
AKRON          CLOUDY    23  16  74 SE10      30.14S WCI  12
SCOTTSBLUFF    CLOUDY    19   9  65 E9        30.21R WCI   8
RAPID CITY     CLOUDY     2  -4  76 NE6       30.34S WCI  -9
BISMARCK       CLOUDY    -6 -10  83 N6        30.54S WCI -19
PIERRE         CLOUDY     2  -4  76 N13       30.51R WCI -15
SIOUX FALLS    LGT SNOW  14   8  77 NE5       30.49R WCI   6
OMAHA          CLOUDY    22   9  57 SE7       30.52S WCI  13
GRAND ISLAND   CLOUDY    22  12  65 S8        30.42R WCI  12
KANSAS CITY    CLOUDY    27  10  49 S6        30.52S WCI  20
WICHITA        CLOUDY    28  13  53 S6        30.46R WCI  22
OKLAHOMA CITY  CLOUDY    33  13  43 SE12      30.44R WCI  24
DALLAS         MOCLDY    37  15  40 SE8       30.49F WCI  31
AMARILLO       CLOUDY    34  28  79 S14       30.21S WCI  25
DODGE CITY     CLEAR     28  16  60 SE9       30.29R WCI  19
HAYS           CLEAR     22  12  65 SE8       30.37R WCI  12
GOODLAND       CLEAR     27  21  78 CALM      30.20R
$$




USA.gov is the U.S. government's official web portal to all federal, state and local government web resources and services.